#timestamp,LO_Frequency,Hit 
1503637215.7,286046992.5,N
1503637235.5,286046992.5,N
1503637255.3,286046992.2,N
1503637275.2,286046990.2,N
1503637295.9,286046993.2,N
1503637315.7,286046991.2,N
1503637335.5,286046988.9,N
1503637355.4,286046989.9,N
1503637375.2,286046985.3,N
1503637395.0,286046986.3,N
1503637395.9,286046986.3,N
1503637415.8,286046985.5,N
1503637435.6,286046986.2,N
1503637455.4,286046982.3,N
1503637475.3,286046983.2,N
1503637495.1,286046983.3,N
1503637496.0,286046983.3,N
1503637515.8,286046984.8,N
1503637535.7,286046985.2,N
1503637555.5,286046981.7,N
1503637575.3,286046981.7,N
1503637595.2,286046983.5,N
1503637615.9,286046983.1,N
1503637635.7,286046983.2,N
1503637655.6,286046980.7,P
1503637675.4,286046992.2,N
1503637695.2,286046994.8,N
1503637715.1,286046992.9,N
1503637716.0,286046992.9,N
1503637735.8,286046991.1,N
1503637755.6,286046989.1,N
1503637775.4,286046990.3,N
1503637795.3,286046988.5,N
1503637815.1,286046989.5,N
1503637835.9,286046986.6,P
1503637855.7,286046997.8,N
1503637875.5,286046999.3,N
1503637895.4,286046999.9,N
1503637915.2,286047004.6,N
1503637935.0,286047006.5,N
1503637935.9,286047006.5,N
1503637955.7,286047007.7,N
1503637975.6,286047010.0,N
1503637995.4,286047008.2,N
1503638015.2,286047013.5,N
1503638035.1,286047012.7,N
1503638036.0,286047012.7,N
1503638055.8,286047016.3,N
1503638075.6,286047015.6,N
1503638095.5,286047018.4,N
1503638115.3,286047016.2,N
1503638135.1,286047014.9,N
1503638155.9,286047015.7,N
1503638175.7,286047018.0,N
1503638195.5,286047017.9,N
1503638215.3,286047017.5,N
1503638235.2,286047016.1,N
1503638255.0,286047017.6,N
1503638255.9,286047017.6,N
1503638275.7,286047019.1,N
1503638295.6,286047017.3,N
1503638315.4,286047019.2,N
1503638335.2,286047022.0,N
1503638355.1,286047020.4,N
1503638356.0,286047020.4,N
1503638375.8,286047019.3,N
1503638395.6,286047021.1,P
1503638415.5,286047006.8,N
1503638435.3,286047006.7,N
1503638455.1,286047006.3,N
1503638475.9,286047006.7,N
1503638495.7,286047008.5,N
1503638515.5,286047006.6,N
1503638535.4,286047005.5,N
1503638555.2,286047004.9,N
1503638575.0,286047005.1,N
1503638575.9,286047005.1,N
1503638595.8,286047009.2,N
1503638615.6,286047012.0,N
1503638635.4,286047010.4,N
1503638655.2,286047006.8,N
1503638675.1,286047008.6,N
1503638676.0,286047008.6,N
1503638695.8,286047008.2,N
1503638715.7,286047011.7,P
1503638735.5,286047002.3,N
1503638755.3,286047000.0,N
1503638775.2,286047000.2,N
1503638795.9,286047002.7,N
1503638815.7,286046999.9,N
1503638835.5,286046999.0,N
1503638855.4,286046997.6,N
1503638875.2,286046997.7,N
1503638895.0,286046995.7,N
1503638895.9,286046995.7,N
1503638915.8,286046995.4,N
1503638935.6,286046993.4,N
1503638955.4,286046996.3,N
1503638975.3,286046999.6,N
1503638995.1,286046999.1,N
1503638996.0,286046999.1,N
1503639015.8,286046998.8,N
1503639035.7,286046998.1,N
1503639055.5,286047000.0,N
1503639075.3,286047002.0,N
1503639095.2,286047000.2,N
1503639115.9,286047002.8,N
1503639135.7,286046997.3,N
1503639155.6,286046997.0,N
1503639175.4,286046998.5,N
1503639195.2,286046997.7,N
1503639215.0,286046995.2,N
1503639216.0,286046995.2,N
1503639235.8,286046995.1,N
1503639255.6,286046995.6,N
1503639275.4,286046998.5,N
1503639295.3,286046999.8,N
1503639315.1,286047003.9,N
1503639335.8,286047004.7,N
1503639355.7,286047001.8,N
1503639375.5,286046998.6,N
1503639395.3,286046996.4,N
1503639415.2,286046995.4,N
1503639435.9,286046995.8,N
1503639455.7,286046994.8,N
1503639475.6,286046990.1,P
1503639495.4,286046990.7,N
1503639515.2,286046989.8,N
1503639535.1,286046991.4,N
1503639536.0,286046991.4,N
1503639555.8,286046990.8,P
1503639575.6,286046997.0,P
1503639595.5,286046994.0,N
1503639615.3,286046990.9,P
1503639635.2,286046995.0,P
1503639655.9,286046998.2,N
1503639675.7,286046998.2,N
1503639695.5,286046999.0,N
1503639715.4,286046999.0,N
1503639735.2,286046998.9,N
1503639755.0,286046995.3,N
1503639755.9,286046995.3,N
1503639775.8,286046993.9,N
1503639795.6,286046992.1,P
1503639815.4,286046997.7,N
1503639835.3,286046999.3,N
1503639855.1,286046996.9,N
1503639875.8,286046998.4,N
1503639895.7,286046999.9,N
1503639915.5,286047001.0,N
1503639935.3,286046997.7,N
1503639955.2,286046995.9,N
1503639975.9,286046996.4,N
1503639995.7,286046997.6,N
1503640015.6,286046995.4,N
1503640035.4,286046993.3,P
1503640055.2,286046995.5,N
1503640075.1,286046997.3,N
1503640076.0,286046997.3,N
1503640095.8,286046998.9,N
1503640115.6,286046996.5,N
1503640135.5,286046996.6,N
1503640155.3,286047002.6,N
1503640175.1,286047006.7,N
1503640195.9,286047005.9,N
1503640215.7,286047007.3,N
1503640235.5,286047006.7,N
1503640255.3,286047008.0,N
1503640275.2,286047010.8,N
1503640295.0,286047009.8,N
1503640295.9,286047009.8,N
1503640315.7,286047015.0,N
1503640335.6,286047018.5,N
1503640355.4,286047018.6,N
1503640375.2,286047020.3,N
1503640395.1,286047019.9,N
1503640396.0,286047019.9,N
1503640415.8,286047018.4,N
1503640435.6,286047018.7,N
1503640455.5,286047018.3,N
1503640475.3,286047019.7,N
1503640495.1,286047020.9,N
1503640515.9,286047020.0,N
1503640535.7,286047018.5,N
1503640555.5,286047019.2,N
1503640575.3,286047017.8,N
1503640595.2,286047018.5,N
1503640615.0,286047014.4,N
1503640615.9,286047014.4,N
1503640635.7,286047016.4,N
1503640655.6,286047016.2,N
1503640675.4,286047014.3,N
1503640695.3,286047016.2,P
1503640715.1,286047002.6,P
1503640716.0,286047002.6,N
1503640735.8,286047002.3,N
1503640755.6,286046998.3,N
1503640775.5,286047001.1,N
1503640795.3,286046998.4,N
